Location: *
(45.1794°N, 0.7143°E)
Time: 22:28:48
(UTC+00:00)

Daily predictions for brighter satellites

Satellite Brightness Start Highest point End
(mag) Time Altitude Azimuth Time Altitude Azimuth Time Altitude Azimuth
Cosmos 1464 Rocket 4.5 20:07:27 10° SSE 20:13:18 42° E 20:19:05 10° NNE
Tiangong 2 1.5 20:12:44 10° W 20:15:46 47° S 20:18:47 10° ESE
MTI 4.4 20:12:55 10° NNE 20:15:53 36° E 20:18:50 10° SSE
Cosmos 1271 Rocket 3.3 20:12:30 10° SSW 20:16:20 63° WNW 20:20:18 10° N
Cosmos 2263 Rocket 2.3 20:12:01 10° NNW 20:17:45 76° ENE 20:23:26 10° SSE
USA 215 3.4 20:12:15 10° NE 20:18:49 84° NW 20:25:23 10° WSW
Cosmos 1992 Rocket 4.3 20:15:06 10° NNW 20:20:16 55° ENE 20:25:24 10° SE
In-Cosmos 22 Rocket 4.5 20:15:12 10° SSE 20:20:20 47° E 20:25:39 10° NNE
Cosmos 1766 Rocket 3.8 20:16:22 10° S 20:20:33 50° E 20:24:44 10° NNE
USA 186 4.4 20:20:39 10° SW 20:22:15 14° W 20:23:49 10° WNW
Cosmos 1408 Rocket 4.0 20:23:31 10° SSE 20:27:32 40° E 20:31:35 10° NNE
SL-08 RB Rocket 3.9 20:23:12 10° S 20:27:40 76° WSW 20:32:11 10° NNW
USA 245 3.9 20:26:50 10° ESE 20:28:17 16° ENE 20:29:49 10° NNE
Lacrosse 5 rocket 4.2 20:26:01 10° NW 20:29:21 19° N 20:32:40 10° NE
Spot 2 Rocket 3.5 20:26:39 10° SSE 20:31:44 74° ENE 20:36:51 10° N
Cosmos 1242 Rocket 2.6 20:28:42 10° S 20:32:19 65° E 20:35:58 10° NNE
Cosmos 1892 3.2 20:30:20 10° SSE 20:33:58 42° E 20:37:36 10° NNE
SL-24 R/B 4.4 20:30:25 10° N 20:34:46 78° WNW 20:39:40 10° SSW
Cosmos 2058 3.4 20:31:04 10° SSW 20:35:15 66° W 20:39:28 10° N
MetOp-B 4.2 20:31:26 10° SSE 20:36:45 69° ENE 20:42:05 10° N
SPOT 5 4.1 20:35:44 11° ESE 20:39:53 29° ENE 20:44:01 10° N
CZ-2C R/B 3.2 20:34:56 10° SSE 20:40:22 87° WSW 20:45:32 10° NNW
SL-8 R/B 4.2 20:37:40 10° WNW 20:42:24 61° N 20:47:09 10° E
Cosmos 2228 Rocket 4.2 20:38:55 10° N 20:42:59 31° ENE 20:46:20 14° SE
Cosmos 921 Rocket 3.1 20:40:21 10° NNW 20:44:35 63° ENE 20:48:18 13° SSE
SL-4 R/B 3.4 20:43:00 10° S 20:46:57 25° SE 20:50:53 10° E
Resurs 01 Rocket 2.7 20:44:19 10° S 20:48:32 44° W 20:52:48 10° NNW
DELTA 2 R/B (1) 4.3 20:44:24 10° SW 20:49:15 31° SSE 20:54:06 10° E
COSMOS 2428 4.4 20:48:53 12° ESE 20:50:50 14° E 20:53:45 10° ENE
USA 267 3.3 20:47:06 13° SE 20:53:11 84° SW 20:59:47 10° NW
Cosmos 1151 Rocket 3.0 20:52:31 10° N 20:56:56 78° E 21:00:48 13° SSE
ATLAS CENTAUR R/B 4.3 20:56:03 10° N 20:57:39 11° NNE 20:59:13 10° NE
Cosmos 1238 Rocket 4.2 20:51:13 10° S 20:57:49 89° W 21:04:26 10° N
Cosmos 1461 4.5 20:55:14 10° WNW 20:58:35 27° WSW 21:02:00 10° S
NOSS 3-1 (C) 4.1 20:55:22 10° SSE 20:59:58 28° ESE 21:05:02 10° NE
Landsat 7 4.1 20:57:35 16° SE 21:01:16 54° ENE 21:05:55 10° N
Timation 1 Rocket 4.5 20:56:45 10° NNW 21:02:45 77° WSW 21:07:51 15° SSE
Cosmos 2360 Rocket 2.3 20:59:25 10° S 21:04:53 53° ESE 21:10:21 10° NE
ISS -3.9 21:02:02 10° SW 21:05:22 74° SSE 21:08:42 10° ENE
Lacrosse 5 4.3 21:03:23 10° NW 21:07:14 21° N 21:11:06 10° NE
Cosmos 1328 Rocket 3.8 21:03:14 10° NNW 21:07:37 69° W 21:11:38 12° S
Cosmos 1408 2.7 21:11:39 18° S 21:14:15 59° E 21:17:56 10° NNE
H-2A R/B 4.2 21:10:11 10° SSW 21:14:32 24° W 21:18:53 10° NW
Cosmos 1606 3.6 21:14:11 10° N 21:17:40 33° ENE 21:19:13 24° ESE
SWARM C 4.5 21:16:37 18° S 21:18:57 87° W 21:22:19 10° N
Cosmos 292 Rocket 4.4 21:14:21 10° N 21:19:00 43° ENE 21:21:48 21° SE
SWARM A 4.4 21:16:28 15° S 21:19:06 71° W 21:22:28 10° N
Cosmos 1500 Rocket 3.6 21:15:38 16° S 21:19:12 66° E 21:23:39 10° NNE
BREEZE-M DEB (TANK) 4.2 21:16:23 10° SW 21:20:35 58° SE 21:35:44 10° ENE
MOS 1 Rocket 4.2 21:19:25 10° NE 21:23:23 30° E 21:25:05 23° SE
CZ-2C R/B 2.6 21:20:27 10° NNE 21:25:42 85° WNW 21:30:53 10° SSW
Cosmos 1933 3.3 21:21:57 10° N 21:26:01 70° E 21:28:08 27° SSE
Nadezhda 4 Rocket 4.1 21:19:57 10° N 21:26:18 82° W 21:31:30 15° S
Terra 2.1 21:27:45 24° SE 21:30:24 54° ENE 21:35:03 10° N
Cosmos 1140 Rocket 3.9 21:27:45 22° SSE 21:30:36 41° ESE 21:35:29 10° NE
Cosmos 2034 Rocket 4.3 21:25:49 10° SSW 21:32:01 70° W 21:38:20 10° N
Cosmos 407 Rocket 3.5 21:27:19 11° S 21:32:19 67° ESE 21:37:38 10° NNE
Cosmos 2219 Rocket 3.0 21:33:10 24° SE 21:35:18 31° ESE 21:40:13 10° NE
Cosmos 2322 Rocket 3.3 21:29:56 10° SW 21:35:24 47° WNW 21:40:56 10° NNE
Thor Agena Rocket 3.4 21:30:33 10° NNE 21:35:37 85° ESE 21:40:05 13° SSW
USA 81 4.1 21:30:40 10° N 21:35:57 68° E 21:39:02 25° SSE
USA 229 DEB 3.6 21:30:44 10° SSW 21:37:13 66° ESE 21:44:00 10° NE
Cosmos 2333 4.5 21:33:29 19° S 21:37:16 47° ESE 21:42:41 10° NE
USA 229 3.6 21:30:51 10° SSW 21:37:19 65° ESE 21:44:07 10° NE
Cosmos 1825 2.0 21:35:30 24° S 21:37:40 87° E 21:41:28 10° N
Cosmos 44 Rocket 4.1 21:32:53 10° SW 21:37:54 55° NW 21:42:52 10° NNE
Cosmos 1190 Rocket 3.9 21:34:00 14° S 21:38:23 69° ESE 21:43:35 10° NNE
Meteor 2-3 Rocket 3.9 21:34:30 20° S 21:38:28 62° E 21:44:12 10° NNE
BREEZE-M DEB (TANK) 3.0 21:38:09 10° WNW 21:40:13 38° N 21:44:06 10° ENE
NOSS 3-1 (A) 3.9 21:38:16 24° SSE 21:40:42 35° ESE 21:46:16 10° NE
ERS-1 Rocket 3.3 21:37:30 19° S 21:41:02 64° WSW 21:46:03 10° NNW
SL-16 R/B 3.7 21:36:13 10° WSW 21:41:29 38° NW 21:46:47 10° NNE
BREEZE-M DEB (TANK) 2.9 21:39:22 10° W 21:41:45 41° NNW 21:43:55 10° ENE
Cosmos 2333 Rocket 2.9 21:39:40 26° SE 21:41:51 34° ESE 21:46:57 10° NE
Meteor 1-26 Rocket 4.2 21:37:09 10° N 21:42:49 74° ENE 21:45:56 27° SSE
Cosmos 2278 Rocket 3.7 21:38:12 10° N 21:42:53 26° NE 21:46:37 14° E
Cosmos 614 Rocket 3.8 21:39:33 15° SSW 21:43:41 74° ESE 21:48:46 10° NNE
Cosmos 1092 Rocket 4.0 21:38:16 10° N 21:44:33 90° W 21:48:39 23° S
Cosmos 1743 Rocket 4.1 21:42:28 12° SSW 21:46:27 56° W 21:50:45 10° N
IGS 5A 3.9 21:44:07 24° S 21:46:28 58° W 21:50:36 10° NNW
Gbstr 26 Del rocket 4.2 21:43:14 10° W 21:46:54 37° NNW 21:50:23 10° NE
Cosmos 1707 Rocket 4.2 21:46:34 10° N 21:50:49 42° ENE 21:52:17 32° ESE
Cosmos 1607 4.1 21:44:50 10° NNW 21:50:59 67° NE 21:54:31 26° SE
Tiangong 2 3.1 21:49:46 10° WSW 21:51:17 17° SW 21:51:17 17° SW
Cosmos 2322 3.6 21:48:09 11° SSW 21:53:32 80° ESE 21:59:14 10° NNE
Helios 1A 4.3 21:54:50 23° E 21:56:08 27° ENE 21:59:38 10° N
Cosmos 1844 Rocket 2.7 21:51:20 10° NNW 21:57:02 81° WSW 21:59:54 31° SSE
SeaSat 1 4.4 21:56:58 10° ENE 21:58:44 13° E 21:58:44 13° E
Cosmos 2263 Rocket 4.4 21:57:26 10° WNW 22:00:58 17° W 22:04:30 10° SW
NOSS 2 (F) 4.4 21:58:30 10° NW 22:01:29 77° NE 22:01:42 71° E
SL-23 DEB 4.3 21:59:03 10° WNW 22:02:52 35° SW 22:03:13 34° SSW
SPOT 1/Viking Rocket 4.5 22:01:07 18° SSW 22:04:32 41° W 22:09:27 10° NNW
Cosmos 1634 Rocket 4.0 22:02:18 21° S 22:06:43 86° W 22:12:59 10° N
Lacrosse 5 rocket 3.8 22:06:13 10° NW 22:09:56 23° NNE 22:13:35 10° ENE
Cosmos 1805 Rocket 3.5 22:09:39 35° SSW 22:11:29 83° W 22:15:52 10° N
IRAS Rocket 4.2 22:11:40 35° SSE 22:14:11 83° ENE 22:19:51 10° NNW
Landsat 4 4.1 22:11:36 10° N 22:15:16 57° WNW 22:16:49 31° SW
Cosmos 2026 Rocket 4.0 22:11:43 10° NNW 22:17:47 73° W 22:21:01 29° S
SPOT 5 4.0 22:14:58 21° SSW 22:17:49 38° W 22:22:23 10° NNW
Cosmos 1655 Rocket 4.1 22:14:45 10° N 22:21:00 65° E 22:23:37 35° SSE
Cosmos 1818 3.5 22:17:07 10° NW 22:22:38 88° WSW 22:24:37 41° SSE
SL-8 R/B 3.7 22:20:19 10° WNW 22:25:02 65° SSW 22:26:05 49° SSE
Cosmos 1782 2.8 22:21:01 10° N 22:25:04 80° W 22:25:49 57° S
SL-4 R/B 2.4 22:21:30 10° WSW 22:26:22 84° NNW 22:31:08 10° ENE
Mayak -1.0 22:23:10 10° NNE 22:27:18 50° E 22:27:40 48° ESE
Meteor 1-10 Rocket 4.3 22:22:28 10° N 22:28:06 67° ENE 22:30:09 40° SE
Cosmos 1812 4.3 22:28:23 10° NNE 22:31:34 24° ENE 22:31:48 24° ENE
Cosmos 1666 Rocket 3.5 22:30:46 50° S 22:31:56 89° E 22:36:27 10° N
Cosmos 1862 3.6 22:33:05 49° E 22:33:09 49° E 22:37:02 10° NNE
SL-16 R/B 4.1 22:34:09 14° E 22:34:09 14° E 22:36:53 10° ENE
Cosmos 1633 Rocket 2.9 22:33:25 58° SSE 22:34:12 77° E 22:38:33 10° NNE
COSMOS 2428 2.7 22:30:50 26° SSW 22:34:14 88° WNW 22:40:01 10° NNE
ALOS 2 3.9 22:33:16 25° E 22:34:18 28° ENE 22:38:03 10° N
Cosmos 1400 Rocket 4.2 22:30:52 10° NNE 22:34:28 28° ENE 22:34:59 27° E
DELTA 2 R/B (1) 3.7 22:29:45 10° WSW 22:35:06 48° S 22:35:50 45° SSE
Cosmos 1844 4.2 22:31:32 10° NW 22:36:56 49° WSW 22:38:56 34° SSW
Cosmos 2180 Rocket 4.4 22:34:33 37° S 22:37:12 81° E 22:43:21 10° N
NOSS 2-3 (C) 3.9 22:37:14 49° SE 22:37:21 49° ESE 22:42:15 10° NE
ATLAS CENTAUR R/B 2.7 22:33:33 10° NNW 22:38:01 38° NE 22:39:44 28° E
Lacrosse 4 Rocket 4.0 22:41:23 11° E 22:41:23 11° E 22:41:37 10° E
Helios 1B rocket 3.6 22:36:21 10° NE 22:39:43 30° E 22:39:43 30° E
ISS -1.9 22:39:14 10° WNW 22:42:17 31° NNW 22:45:19 10° NE
ASTEX 1 4.0 22:38:19 10° N 22:43:12 54° W 22:45:28 30° SW
Cosmos 1980 4.0 22:42:14 43° SE 22:43:17 48° ESE 22:48:44 10° NE
GP-B 3.6 22:40:37 10° NNE 22:44:53 43° E 22:45:14 42° E
Meteor 2-6 Rocket 4.1 22:39:56 10° NNW 22:45:24 82° W 22:47:10 45° S
Cosmos 1867 3.6 22:44:54 47° S 22:46:12 61° ESE 22:51:36 10° NE
Cosmos 1862 Rocket 3.4 22:43:38 10° N 22:47:59 71° E 22:48:29 63° SE
Cosmos 2360 Rocket 4.1 22:44:24 10° WSW 22:49:11 28° NW 22:53:59 10° N
NOSS 3-1 (C) 4.0 22:44:44 10° SW 22:50:17 56° NW 22:56:43 10° NNE
Cosmos 2237 Rocket 2.4 22:49:41 45° SE 22:50:39 51° ESE 22:56:05 10° NE
Lacrosse 5 3.5 22:46:59 10° NW 22:51:32 32° NNE 22:56:03 10° E
Cosmos 1470 Rocket 3.5 22:51:23 62° ESE 22:51:42 64° E 22:56:03 10° NNE
COSMOS 2455 3.7 22:51:59 30° ESE 22:52:14 30° ESE 22:57:26 10° NE
Sich 1 4.0 22:51:30 30° WSW 22:53:02 41° WNW 22:57:06 10° N
Cosmos 2084 Rocket 4.2 22:51:53 10° NW 22:55:57 39° WSW 22:55:58 39° WSW
Meteor 2-13 Rocket 4.5 22:52:08 10° N 22:58:14 70° E 23:00:11 44° SSE
Cosmos 1741 Rocket 3.9 22:57:18 53° S 22:58:30 77° ESE 23:03:45 10° NNE
Cosmos 1633 2.7 22:59:07 69° NNE 22:59:07 69° NNE 23:02:19 10° N
Cosmos 2266 Rocket 3.9 23:01:47 10° N 23:08:12 89° WSW 23:10:16 46° S
Terra 3.8 23:06:38 15° WSW 23:08:28 18° W 23:11:44 10° NW
Cosmos 1850 Rocket 4.0 23:07:43 47° SSW 23:09:20 83° WNW 23:14:43 10° NNE
Meteor 1-27 Rocket 3.8 23:11:52 10° NNW 23:17:46 80° W 23:19:24 50° S
Cosmos 2219 Rocket 3.2 23:14:49 16° WSW 23:19:04 44° WNW 23:24:30 10° NNE
Cosmos 2297 4.5 23:15:33 10° NNW 23:20:58 45° ENE 23:23:14 30° ESE
Spot 4 4.4 23:20:16 41° SW 23:21:02 44° W 23:25:37 10° NNW
Cosmos 540 Rocket 4.3 23:16:46 10° N 23:21:38 42° ENE 23:23:07 34° ESE
ARGOS Delta rocket 3.7 23:22:00 61° SW 23:22:22 64° W 23:26:54 10° NNW
Cosmos 2333 Rocket 3.3 23:21:37 15° WSW 23:26:02 40° NW 23:31:24 10° NNE
Cosmos 2278 Rocket 2.3 23:21:47 10° NNW 23:27:22 60° WSW 23:28:27 51° SSW
Cosmos 1943 Rocket 4.4 23:25:03 10° N 23:28:50 18° NE 23:32:36 10° E
ATLAS 5 CENTAUR R/B 3.9 23:24:15 10° NNW 23:29:13 31° NE 23:34:45 10° E
NOSS 3-1 (A) 4.3 23:25:53 10° WSW 23:31:22 47° NW 23:37:43 10° NNE
Helios 1A 4.3 23:31:27 29° W 23:31:36 29° W 23:35:16 10° NW
Gbstr 26 Del rocket 4.4 23:30:57 10° WNW 23:34:21 32° N 23:37:51 10° ENE
SeaSat 1 2.4 23:32:34 10° NNE 23:37:32 86° WNW 23:38:30 59° SW
Cosmos 841 Rocket 3.4 23:33:40 10° NNW 23:38:50 77° ENE 23:39:44 60° SE
BREEZE-M DEB (TANK) 4.3 23:26:20 10° W 23:41:05 85° N 23:45:24 10° E
Meteor 1-29 3.7 23:39:34 10° N 23:42:19 52° NNW 23:42:19 52° NNW
NOSS 2-3 (D) 4.5 23:43:27 31° WSW 23:45:21 51° NW 23:50:34 10° NNE
CZ-4 R/B 3.7 23:41:09 10° NNE 23:45:51 72° ESE 23:46:10 69° SE
Cosmos 1763 Rocket 3.6 23:41:05 10° NNW 23:46:10 57° WSW 23:46:44 54° SW
Lacrosse 5 rocket 1.8 23:45:19 10° NW 23:49:54 66° NE 23:50:38 55° E
Cosmos 2369 Rocket 4.0 23:48:31 10° N 23:53:15 26° NE 23:57:56 10° ESE
